Back to catalog

STARLINK-5676

AliveCommunicationsVLEO
NORAD 55464·PAYLOAD·🇺🇸 United States

Launched Feb 2, 2023 from Cape Canaveral Space Force Station

Loading…

Next Passes (next 24 hours)

TLE

FreshSource: CelesTrak SupGP

Epoch: Sep 14, 2026, 14:55 UTC

1 55464C 23015R   26257.62201389  .00039243  00000+0  14215-2 0  2570
2 55464  43.0020 341.7047 0001392 273.6229 210.5202 15.27556160    18

Track STARLINK-5676 in real time with AllMySat

Download on the App Store